contact:dominique.lefevre@mio.osupytheas.fr, maurice.libes@osupytheas.fr, didier.mallarino@osupytheas.fr
Project:EMSO http://www.emso-fr.org/EMSO-France
Depth: 2436.0 m
Title:EMSO Ligure Ouest : Data MII capteur AQUADOPP
Date,Latitude,Longitude,X_East,Y_North,Z_Up,Amplitude_X,Amplitude_Y,Amplitude_Z,Batterie,SoundSpeed,Heading,Pitch,Roll,Pressure,TIS,Speed,Direction
, degrees North, degrees East, m.s-1, m.s-1,m.s-1, 1, 1, 1, Volt, m.s-1, degree, degree, degree, dbar, degree_C, m.s-1, degree
2022-03-30T00:04:02,42.805,6.029,-0.005,-0.034,-0.007,108.0,107.0,104.0,13.3,1505.2,323.3,-0.8,1.8,2470.492,13.28,0.034,188.4
2022-03-30T00:07:02,42.805,6.029,0.0,-0.022,-0.011,106.0,107.0,104.0,13.3,1505.2,322.4,-0.8,1.8,2470.492,13.28,0.022,180.0
2022-03-30T00:10:03,42.805,6.029,-0.021,-0.02,-0.054,107.0,107.0,104.0,13.4,1505.2,324.7,-0.8,1.8,2470.467,13.28,0.028,226.4
2022-03-30T00:13:03,42.805,6.029,-0.022,-0.034,0.005,107.0,108.0,105.0,13.4,1505.2,325.5,-0.7,1.8,2470.508,13.29,0.04,212.9
2022-03-30T00:16:03,42.805,6.029,0.0,-0.045,-0.008,108.0,107.0,105.0,13.4,1505.2,324.9,-0.7,1.8,2470.465,13.29,0.045,180.0
2022-03-30T00:19:03,42.805,6.029,-0.017,-0.041,-0.033,107.0,107.0,105.0,13.4,1505.2,329.7,-0.8,1.8,2470.433,13.29,0.044,202.5
2022-03-30T00:22:02,42.805,6.029,-0.014,-0.029,-0.036,107.0,107.0,105.0,13.4,1505.2,323.2,-0.8,1.8,2470.432,13.29,0.032,205.8
2022-03-30T00:25:03,42.805,6.029,-0.004,-0.053,-0.004,106.0,108.0,104.0,13.3,1505.2,330.1,-0.8,1.8,2470.476,13.29,0.053,184.3
2022-03-30T00:28:03,42.805,6.029,-0.026,-0.041,-0.025,107.0,106.0,104.0,13.4,1505.2,328.9,-0.7,1.8,2470.462,13.29,0.048,212.4
2022-03-30T00:31:03,42.805,6.029,-0.049,-0.031,-0.001,107.0,106.0,104.0,13.3,1505.2,327.1,-0.8,1.8,2470.447,13.29,0.057,237.7
2022-03-30T00:34:02,42.805,6.029,-0.005,-0.044,-0.021,107.0,107.0,104.0,13.4,1505.2,322.9,-0.7,1.8,2470.42,13.29,0.044,186.5
2022-03-30T00:37:02,42.805,6.029,-0.022,-0.039,-0.018,107.0,106.0,104.0,13.3,1505.2,324.9,-0.8,1.8,2470.43,13.29,0.044,209.4
2022-03-30T00:40:03,42.805,6.029,0.016,-0.029,-0.008,106.0,105.0,105.0,13.4,1505.2,324.5,-0.7,1.8,2470.432,13.29,0.033,151.1
2022-03-30T00:43:03,42.805,6.029,-0.009,-0.016,-0.034,107.0,107.0,104.0,13.4,1505.2,330.6,-0.7,1.8,2470.489,13.29,0.018,209.4
2022-03-30T00:46:03,42.805,6.029,-0.019,-0.017,-0.016,108.0,106.0,104.0,13.4,1505.2,327.8,-0.8,1.8,2470.427,13.29,0.025,228.2
2022-03-30T00:49:03,42.805,6.029,0.0,-0.029,0.024,107.0,107.0,105.0,13.4,1505.2,324.3,-0.7,1.8,2470.451,13.29,0.028,180.0
2022-03-30T00:52:02,42.805,6.029,-0.013,-0.036,-0.018,107.0,107.0,103.0,13.4,1505.2,327.7,-0.8,1.8,2470.452,13.29,0.038,199.9
2022-03-30T00:55:03,42.805,6.029,-0.033,-0.048,-0.017,108.0,105.0,105.0,13.4,1505.2,331.8,-0.8,1.8,2470.436,13.29,0.058,214.5
2022-03-30T00:58:03,42.805,6.029,-0.033,-0.01,0.004,107.0,107.0,103.0,13.3,1505.2,328.3,-0.7,1.8,2470.472,13.29,0.034,253.1
2022-03-30T01:04:02,42.805,6.029,-0.005,-0.036,-0.065,110.0,109.0,106.0,13.4,1505.2,331.0,-0.8,1.8,2470.503,13.28,0.036,187.9
2022-03-30T01:07:02,42.805,6.029,-0.038,-0.04,-0.025,108.0,108.0,105.0,13.4,1505.2,325.0,-0.8,1.8,2470.509,13.29,0.055,223.5
2022-03-30T01:10:03,42.805,6.029,-0.016,-0.036,-0.019,109.0,105.0,105.0,13.4,1505.2,323.1,-0.7,1.8,2470.472,13.29,0.039,204.0
2022-03-30T01:13:03,42.805,6.029,-0.018,-0.021,-0.005,108.0,106.0,105.0,13.3,1505.2,325.9,-0.8,1.8,2470.482,13.29,0.027,220.6
2022-03-30T01:16:03,42.805,6.029,-0.019,-0.039,0.01,108.0,107.0,104.0,13.3,1505.2,323.3,-0.8,1.8,2470.5,13.29,0.043,206.0
2022-03-30T01:19:03,42.805,6.029,-0.004,-0.015,-0.013,109.0,106.0,104.0,13.4,1505.2,328.8,-0.7,1.8,2470.464,13.29,0.015,194.9
2022-03-30T01:22:02,42.805,6.029,-0.026,-0.041,-0.025,107.0,107.0,104.0,13.4,1505.2,324.7,-0.7,1.8,2470.503,13.29,0.048,212.4
2022-03-30T01:25:03,42.805,6.029,-0.001,-0.025,-0.007,109.0,105.0,104.0,13.4,1505.2,325.5,-0.8,1.8,2470.461,13.29,0.025,182.3
2022-03-30T01:28:03,42.805,6.029,-0.026,-0.04,0.006,107.0,108.0,103.0,13.4,1505.2,332.5,-0.8,1.8,2470.508,13.29,0.047,213.0
2022-03-30T01:31:03,42.805,6.029,-0.029,-0.024,-0.051,108.0,106.0,104.0,13.4,1505.2,332.2,-0.8,1.8,2470.478,13.29,0.037,230.4
2022-03-30T01:34:03,42.805,6.029,-0.021,-0.024,-0.028,108.0,107.0,105.0,13.4,1505.2,327.7,-0.7,1.8,2470.46,13.29,0.031,221.2
2022-03-30T01:37:02,42.805,6.029,0.0,-0.041,-0.027,107.0,106.0,104.0,13.4,1505.2,326.2,-0.7,1.8,2470.465,13.29,0.041,180.0
2022-03-30T01:40:03,42.805,6.029,-0.03,-0.032,-0.01,107.0,107.0,105.0,13.3,1505.2,326.0,-0.8,1.9,2470.47,13.29,0.043,223.1
2022-03-30T01:43:03,42.805,6.029,-0.019,-0.03,-0.046,108.0,106.0,104.0,13.4,1505.2,325.4,-0.8,1.8,2470.499,13.29,0.035,212.3
2022-03-30T01:46:03,42.805,6.029,-0.015,-0.047,-0.015,109.0,106.0,104.0,13.3,1505.2,329.7,-0.7,1.8,2470.471,13.29,0.049,197.7
2022-03-30T01:49:03,42.805,6.029,-0.007,-0.028,-0.026,107.0,106.0,104.0,13.4,1505.2,324.7,-0.8,1.8,2470.483,13.29,0.028,194.0
2022-03-30T01:52:02,42.805,6.029,-0.02,-0.033,-0.006,108.0,108.0,105.0,13.4,1505.2,328.6,-0.8,1.8,2470.496,13.29,0.038,211.2
2022-03-30T01:55:03,42.805,6.029,-0.031,-0.025,-0.034,107.0,107.0,105.0,13.3,1505.2,328.5,-0.7,1.8,2470.495,13.29,0.039,231.1
2022-03-30T01:58:03,42.805,6.029,-0.046,-0.061,-0.036,107.0,107.0,105.0,13.4,1505.2,331.8,-0.8,1.8,2470.475,13.29,0.076,217.0
2022-03-30T02:04:02,42.805,6.029,-0.033,-0.025,-0.019,107.0,108.0,103.0,13.4,1505.2,323.8,-0.8,1.8,2470.53,13.29,0.041,232.9
2022-03-30T02:07:02,42.805,6.029,-0.036,-0.018,-0.018,108.0,107.0,105.0,13.4,1505.2,322.2,-0.7,1.8,2470.539,13.29,0.04,243.4
2022-03-30T02:10:03,42.805,6.029,-0.026,-0.026,-0.026,107.0,107.0,105.0,13.4,1505.2,325.2,-0.8,1.8,2470.553,13.29,0.036,225.0
2022-03-30T02:13:03,42.805,6.029,-0.046,-0.028,-0.011,107.0,108.0,105.0,13.4,1505.2,329.8,-0.8,1.8,2470.538,13.29,0.053,238.7
2022-03-30T02:16:03,42.805,6.029,-0.019,-0.015,-0.018,108.0,106.0,105.0,13.4,1505.2,332.2,-0.7,1.8,2470.521,13.29,0.024,231.7
2022-03-30T02:19:03,42.805,6.029,-0.04,-0.011,-0.027,107.0,106.0,105.0,13.4,1505.2,331.6,-0.8,1.8,2470.567,13.29,0.041,254.6
2022-03-30T02:22:02,42.805,6.029,-0.029,-0.035,-0.04,108.0,107.0,104.0,13.4,1505.2,329.3,-0.7,1.8,2470.508,13.29,0.045,219.6
2022-03-30T02:25:03,42.805,6.029,-0.023,-0.039,-0.015,107.0,107.0,105.0,13.3,1505.2,329.5,-0.7,1.8,2470.533,13.29,0.045,210.5
2022-03-30T02:28:03,42.805,6.029,-0.039,-0.034,-0.014,108.0,107.0,104.0,13.4,1505.2,327.2,-0.8,1.8,2470.551,13.29,0.051,228.9
2022-03-30T02:31:03,42.805,6.029,-0.027,-0.017,-0.018,107.0,107.0,104.0,13.4,1505.2,326.2,-0.7,1.8,2470.539,13.29,0.031,237.8
2022-03-30T02:34:03,42.805,6.029,-0.017,-0.02,-0.023,107.0,107.0,104.0,13.4,1505.2,326.6,-0.7,1.8,2470.517,13.29,0.026,220.4
2022-03-30T02:37:02,42.805,6.029,-0.018,-0.016,-0.021,108.0,106.0,104.0,13.3,1505.2,328.5,-0.8,1.8,2470.516,13.29,0.024,228.4
2022-03-30T02:40:03,42.805,6.029,-0.04,-0.043,0.005,108.0,108.0,105.0,13.4,1505.2,330.2,-0.8,1.8,2470.564,13.29,0.058,222.9
2022-03-30T02:43:03,42.805,6.029,-0.036,-0.019,0.02,107.0,108.0,104.0,13.4,1505.2,324.8,-0.8,1.8,2470.548,13.29,0.04,242.2
2022-03-30T02:46:03,42.805,6.029,-0.034,-0.014,-0.024,106.0,106.0,105.0,13.4,1505.2,325.2,-0.8,1.8,2470.564,13.29,0.036,247.6
2022-03-30T02:49:03,42.805,6.029,-0.046,-0.028,-0.026,107.0,106.0,104.0,13.4,1505.2,325.1,-0.8,1.8,2470.522,13.29,0.053,238.7
2022-03-30T02:52:02,42.805,6.029,-0.028,-0.031,-0.009,107.0,106.0,104.0,13.4,1505.2,331.1,-0.8,1.8,2470.501,13.29,0.041,222.1
2022-03-30T02:55:03,42.805,6.029,-0.035,-0.019,-0.006,107.0,108.0,106.0,13.4,1505.2,327.1,-0.8,1.8,2470.519,13.29,0.039,241.5
2022-03-30T02:58:03,42.805,6.029,-0.02,-0.035,-0.017,106.0,106.0,104.0,13.4,1505.2,327.4,-0.7,1.8,2470.55,13.29,0.04,209.7
2022-03-30T03:04:02,42.805,6.029,-0.021,-0.009,-0.025,107.0,107.0,104.0,13.4,1505.2,328.0,-0.7,1.8,2470.597,13.28,0.022,246.8
2022-03-30T03:07:02,42.805,6.029,-0.043,-0.035,0.016,108.0,108.0,104.0,13.4,1505.2,323.6,-0.8,1.8,2470.594,13.29,0.055,230.9
2022-03-30T03:10:03,42.805,6.029,-0.02,-0.021,-0.04,108.0,107.0,104.0,13.4,1505.2,332.2,-0.8,1.8,2470.592,13.29,0.028,223.6
2022-03-30T03:13:03,42.805,6.029,-0.041,-0.035,-0.009,106.0,106.0,103.0,13.4,1505.2,329.0,-0.7,1.8,2470.611,13.29,0.053,229.5
2022-03-30T03:16:03,42.805,6.029,-0.04,-0.019,-0.012,107.0,107.0,103.0,13.3,1505.2,331.2,-0.7,1.8,2470.59,13.29,0.044,244.6
2022-03-30T03:19:03,42.805,6.029,-0.033,-0.028,-0.013,108.0,106.0,104.0,13.4,1505.2,330.2,-0.7,1.8,2470.598,13.29,0.043,229.7
2022-03-30T03:22:03,42.805,6.029,-0.011,-0.038,-0.025,108.0,106.0,104.0,13.3,1505.2,325.4,-0.8,1.8,2470.594,13.29,0.039,196.1
2022-03-30T03:25:03,42.805,6.029,-0.031,-0.016,-0.029,106.0,107.0,104.0,13.4,1505.2,332.4,-0.8,1.8,2470.618,13.29,0.034,242.7
2022-03-30T03:28:03,42.805,6.029,-0.025,-0.021,-0.01,108.0,106.0,104.0,13.3,1505.2,332.4,-0.8,1.8,2470.574,13.29,0.032,230.0
2022-03-30T03:31:03,42.805,6.029,-0.037,-0.028,-0.023,107.0,107.0,105.0,13.4,1505.2,327.8,-0.7,1.8,2470.588,13.29,0.046,232.9
2022-03-30T03:34:03,42.805,6.029,-0.025,-0.015,0.014,106.0,107.0,104.0,13.4,1505.2,331.3,-0.7,1.8,2470.605,13.29,0.029,239.0
2022-03-30T03:37:02,42.805,6.029,-0.017,-0.03,-0.009,106.0,107.0,105.0,13.3,1505.2,326.5,-0.7,1.8,2470.573,13.29,0.034,209.5
2022-03-30T03:40:03,42.805,6.029,-0.032,-0.014,-0.041,107.0,106.0,106.0,13.4,1505.2,332.7,-0.7,1.8,2470.594,13.29,0.034,246.4
2022-03-30T03:43:03,42.805,6.029,-0.016,-0.018,-0.012,106.0,106.0,104.0,13.3,1505.2,330.1,-0.8,1.8,2470.563,13.29,0.024,221.6
2022-03-30T03:46:03,42.805,6.029,-0.038,-0.011,-0.003,106.0,107.0,103.0,13.4,1505.2,330.5,-0.7,1.8,2470.634,13.29,0.039,253.9
2022-03-30T03:49:03,42.805,6.029,-0.032,-0.023,-0.019,107.0,107.0,104.0,13.4,1505.2,332.7,-0.8,1.8,2470.595,13.29,0.039,234.3
2022-03-30T03:52:03,42.805,6.029,-0.035,-0.03,-0.015,107.0,107.0,105.0,13.4,1505.2,329.2,-0.8,1.8,2470.629,13.29,0.046,229.4
2022-03-30T03:55:03,42.805,6.029,-0.051,-0.023,-0.031,109.0,107.0,103.0,13.4,1505.2,323.5,-0.8,1.8,2470.611,13.29,0.055,245.7
2022-03-30T03:58:03,42.805,6.029,-0.038,-0.035,-0.012,107.0,107.0,103.0,13.4,1505.2,327.4,-0.7,1.8,2470.583,13.29,0.051,227.4
2022-03-30T04:04:02,42.805,6.029,-0.021,-0.031,-0.015,107.0,106.0,104.0,13.4,1505.2,325.0,-0.7,1.8,2470.666,13.28,0.037,214.1
2022-03-30T04:07:02,42.805,6.029,-0.027,-0.016,-0.003,108.0,105.0,105.0,13.4,1505.2,325.6,-0.8,1.8,2470.65,13.28,0.031,239.3
2022-03-30T04:10:03,42.805,6.029,-0.014,-0.04,0.015,107.0,108.0,105.0,13.3,1505.2,329.4,-0.7,1.8,2470.654,13.29,0.042,199.3
2022-03-30T04:13:03,42.805,6.029,-0.02,-0.031,-0.016,108.0,107.0,103.0,13.3,1505.2,322.2,-0.8,1.8,2470.632,13.29,0.036,212.8
2022-03-30T04:16:03,42.805,6.029,-0.047,-0.027,-0.025,106.0,107.0,104.0,13.3,1505.2,331.5,-0.8,1.8,2470.676,13.29,0.054,240.1
2022-03-30T04:19:03,42.805,6.029,-0.036,-0.021,-0.032,107.0,107.0,108.0,13.3,1505.2,324.6,-0.7,1.8,2470.675,13.29,0.041,239.7
2022-03-30T04:22:03,42.805,6.029,-0.04,-0.043,-0.019,106.0,107.0,104.0,13.4,1505.2,330.8,-0.7,1.9,2470.653,13.29,0.058,222.9
2022-03-30T04:25:03,42.805,6.029,-0.027,-0.035,-0.005,106.0,108.0,106.0,13.4,1505.2,326.8,-0.7,1.8,2470.667,13.29,0.044,217.7
2022-03-30T04:28:03,42.805,6.029,-0.057,-0.027,-0.039,108.0,106.0,104.0,13.3,1505.2,322.2,-0.8,1.8,2470.675,13.29,0.063,244.7
2022-03-30T04:31:03,42.805,6.029,-0.016,-0.041,0.01,109.0,106.0,105.0,13.4,1505.2,322.9,-0.8,1.8,2470.642,13.29,0.044,201.3
2022-03-30T04:34:03,42.805,6.029,-0.025,-0.029,-0.033,107.0,107.0,104.0,13.4,1505.2,330.2,-0.8,1.8,2470.672,13.29,0.038,220.8
2022-03-30T04:37:03,42.805,6.029,-0.026,-0.022,-0.011,107.0,106.0,104.0,13.3,1505.2,324.8,-0.7,1.8,2470.654,13.29,0.034,229.8
2022-03-30T04:40:03,42.805,6.029,-0.019,-0.009,-0.011,107.0,107.0,104.0,13.4,1505.2,325.6,-0.7,1.8,2470.663,13.29,0.021,244.7
2022-03-30T04:43:03,42.805,6.029,-0.043,-0.009,-0.017,107.0,106.0,105.0,13.4,1505.2,327.7,-0.7,1.8,2470.657,13.29,0.043,258.2
2022-03-30T04:46:03,42.805,6.029,-0.037,-0.016,-0.012,107.0,106.0,104.0,13.3,1505.2,329.2,-0.8,1.8,2470.657,13.29,0.04,246.6
2022-03-30T04:49:03,42.805,6.029,-0.067,-0.019,0.007,106.0,106.0,104.0,13.4,1505.2,326.2,-0.8,1.8,2470.652,13.29,0.069,254.2
2022-03-30T04:52:03,42.805,6.029,-0.026,-0.035,-0.025,107.0,106.0,105.0,13.3,1505.2,329.2,-0.8,1.8,2470.656,13.29,0.043,216.6
2022-03-30T04:55:03,42.805,6.029,-0.036,-0.028,0.005,108.0,106.0,104.0,13.4,1505.2,332.9,-0.7,1.8,2470.685,13.29,0.045,232.1
2022-03-30T04:58:03,42.805,6.029,-0.027,-0.021,-0.026,107.0,106.0,104.0,13.4,1505.2,323.7,-0.8,1.8,2470.7,13.29,0.034,232.1
2022-03-30T05:04:02,42.805,6.029,-0.01,-0.018,-0.035,107.0,107.0,104.0,13.4,1505.2,324.4,-0.8,1.8,2470.708,13.28,0.02,209.1
2022-03-30T05:07:03,42.805,6.029,-0.048,-0.037,0.007,107.0,108.0,104.0,13.3,1505.2,326.1,-0.8,1.8,2470.679,13.28,0.06,232.4
2022-03-30T05:10:03,42.805,6.029,-0.027,-0.013,-0.009,107.0,106.0,105.0,13.4,1505.2,326.8,-0.7,1.8,2470.707,13.29,0.029,244.3
2022-03-30T05:13:03,42.805,6.029,-0.038,-0.04,-0.021,106.0,108.0,105.0,13.4,1505.2,326.9,-0.8,1.8,2470.716,13.29,0.055,223.5
2022-03-30T05:16:03,42.805,6.029,-0.018,-0.019,0.0,107.0,106.0,104.0,13.4,1505.2,325.6,-0.7,1.8,2470.707,13.29,0.026,223.5
2022-03-30T05:19:03,42.805,6.029,-0.034,-0.035,-0.029,108.0,106.0,103.0,13.4,1505.2,327.2,-0.7,1.8,2470.722,13.29,0.048,224.2
2022-03-30T05:22:03,42.805,6.029,-0.022,-0.037,-0.021,107.0,106.0,105.0,13.3,1505.2,322.0,-0.8,1.8,2470.727,13.29,0.043,210.7
2022-03-30T05:25:03,42.805,6.029,-0.013,-0.028,-0.001,107.0,106.0,104.0,13.4,1505.2,325.9,-0.7,1.8,2470.688,13.29,0.03,204.9
2022-03-30T05:28:03,42.805,6.029,-0.043,-0.031,-0.019,107.0,106.0,105.0,13.3,1505.2,330.4,-0.7,1.8,2470.675,13.29,0.053,234.2
2022-03-30T05:31:03,42.805,6.029,-0.013,-0.028,-0.01,107.0,107.0,103.0,13.4,1505.2,327.0,-0.8,1.8,2470.732,13.29,0.03,204.9
2022-03-30T05:34:03,42.805,6.029,-0.025,-0.024,-0.035,107.0,105.0,104.0,13.3,1505.2,325.7,-0.8,1.8,2470.667,13.29,0.034,226.2
2022-03-30T05:37:03,42.805,6.029,-0.032,-0.034,-0.032,107.0,108.0,104.0,13.4,1505.2,326.0,-0.8,1.8,2470.72,13.29,0.046,223.3
2022-03-30T05:40:03,42.805,6.029,-0.026,-0.021,-0.004,108.0,106.0,104.0,13.4,1505.2,330.9,-0.7,1.8,2470.689,13.29,0.033,231.1
2022-03-30T05:43:03,42.805,6.029,-0.022,-0.037,0.018,108.0,106.0,105.0,13.4,1505.2,323.5,-0.7,1.8,2470.701,13.29,0.043,210.7
2022-03-30T05:46:03,42.805,6.029,-0.018,-0.032,-0.034,106.0,107.0,105.0,13.3,1505.2,327.0,-0.7,1.8,2470.7,13.29,0.036,209.4
2022-03-30T05:49:03,42.805,6.029,-0.038,-0.03,-0.007,108.0,106.0,107.0,13.4,1505.2,330.6,-0.8,1.8,2470.722,13.29,0.048,231.7
2022-03-30T05:52:03,42.805,6.029,-0.028,-0.023,-0.052,107.0,108.0,104.0,13.4,1505.2,332.1,-0.8,1.8,2470.677,13.29,0.036,230.6
2022-03-30T05:55:03,42.805,6.029,0.002,-0.031,-0.008,107.0,106.0,104.0,13.3,1505.2,324.2,-0.7,1.8,2470.68,13.29,0.031,176.3
2022-03-30T05:58:03,42.805,6.029,-0.03,-0.024,-0.01,107.0,107.0,104.0,13.4,1505.2,329.1,-0.7,1.8,2470.679,13.29,0.038,231.3
2022-03-30T06:04:02,42.805,6.029,-0.045,-0.018,-0.035,106.0,106.0,103.0,13.3,1505.2,329.4,-0.8,1.8,2470.729,13.28,0.048,248.2
2022-03-30T06:07:03,42.805,6.029,-0.022,-0.038,-0.006,107.0,105.0,104.0,13.3,1505.2,330.6,-0.8,1.8,2470.692,13.28,0.043,210.1
2022-03-30T06:10:03,42.805,6.029,-0.055,-0.023,-0.005,106.0,106.0,104.0,13.4,1505.2,332.5,-0.7,1.8,2470.681,13.29,0.059,247.3
2022-03-30T06:13:03,42.805,6.029,-0.035,-0.054,-0.019,108.0,106.0,104.0,13.3,1505.2,328.9,-0.7,1.8,2470.722,13.29,0.064,213.0
2022-03-30T06:16:03,42.805,6.029,-0.019,-0.017,-0.031,107.0,105.0,104.0,13.4,1505.2,332.0,-0.8,1.8,2470.73,13.29,0.025,228.2
2022-03-30T06:19:03,42.805,6.029,-0.033,-0.011,-0.023,107.0,106.0,104.0,13.4,1505.2,327.2,-0.8,1.8,2470.73,13.29,0.034,251.6
2022-03-30T06:22:03,42.805,6.029,-0.032,-0.027,-0.027,107.0,107.0,104.0,13.4,1505.2,329.1,-0.8,1.8,2470.71,13.29,0.041,229.8
2022-03-30T06:25:03,42.805,6.029,-0.033,-0.024,-0.006,106.0,106.0,104.0,13.4,1505.2,328.2,-0.7,1.8,2470.689,13.29,0.04,234.0
2022-03-30T06:28:03,42.805,6.029,-0.026,-0.049,-0.01,107.0,106.0,104.0,13.3,1505.2,323.6,-0.8,1.8,2470.732,13.29,0.055,207.9
2022-03-30T06:31:03,42.805,6.029,-0.046,-0.03,-0.005,106.0,107.0,103.0,13.3,1505.2,329.0,-0.8,1.8,2470.727,13.29,0.054,236.9
2022-03-30T06:34:03,42.805,6.029,-0.037,-0.022,-0.03,107.0,107.0,106.0,13.3,1505.2,330.1,-0.8,1.8,2470.701,13.29,0.043,239.3
2022-03-30T06:37:03,42.805,6.029,-0.029,-0.033,-0.012,108.0,106.0,104.0,13.4,1505.2,325.0,-0.8,1.8,2470.696,13.29,0.043,221.3
2022-03-30T06:40:03,42.805,6.029,-0.05,-0.03,-0.037,106.0,106.0,104.0,13.4,1505.2,324.2,-0.8,1.8,2470.652,13.29,0.058,239.0
2022-03-30T06:43:03,42.805,6.029,-0.031,-0.002,0.0,106.0,107.0,103.0,13.4,1505.2,323.3,-0.7,1.8,2470.647,13.29,0.031,266.3
2022-03-30T06:46:03,42.805,6.029,-0.018,-0.032,-0.009,107.0,106.0,104.0,13.4,1505.2,327.7,-0.7,1.8,2470.699,13.29,0.036,209.4
2022-03-30T06:49:03,42.805,6.029,-0.026,-0.02,-0.013,107.0,106.0,105.0,13.4,1505.2,331.4,-0.8,1.8,2470.695,13.29,0.032,232.4
2022-03-30T06:52:03,42.805,6.029,-0.022,-0.03,-0.049,107.0,107.0,104.0,13.4,1505.2,332.7,-0.7,1.8,2470.703,13.29,0.037,216.3
2022-03-30T06:55:03,42.805,6.029,-0.016,-0.049,-0.004,107.0,106.0,106.0,13.3,1505.2,323.5,-0.7,1.8,2470.676,13.29,0.051,198.1
2022-03-30T06:58:03,42.805,6.029,-0.028,-0.022,-0.005,107.0,105.0,105.0,13.4,1505.2,325.8,-0.8,1.8,2470.685,13.29,0.035,231.8
2022-03-30T07:04:02,42.805,6.029,-0.017,-0.019,-0.017,106.0,106.0,103.0,13.4,1505.2,328.9,-0.8,1.8,2470.747,13.28,0.025,221.8
2022-03-30T07:07:03,42.805,6.029,-0.05,-0.008,0.005,107.0,106.0,104.0,13.4,1505.2,323.8,-0.8,1.8,2470.714,13.28,0.05,260.9
2022-03-30T07:10:03,42.805,6.029,-0.028,-0.017,-0.003,106.0,108.0,103.0,13.3,1505.2,326.2,-0.8,1.8,2470.681,13.28,0.032,238.7
2022-03-30T07:13:03,42.805,6.029,-0.019,-0.024,0.0,106.0,106.0,104.0,13.4,1505.2,329.6,-0.8,1.8,2470.749,13.29,0.03,218.4
2022-03-30T07:16:03,42.805,6.029,-0.018,-0.035,-0.028,106.0,106.0,104.0,13.3,1505.2,328.6,-0.8,1.8,2470.699,13.29,0.039,207.2
2022-03-30T07:19:03,42.805,6.029,-0.039,-0.029,-0.029,107.0,106.0,104.0,13.4,1505.2,327.1,-0.8,1.8,2470.689,13.29,0.048,233.4
2022-03-30T07:22:03,42.805,6.029,-0.049,-0.038,-0.029,106.0,106.0,104.0,13.4,1505.2,331.7,-0.7,1.8,2470.703,13.29,0.062,232.2
2022-03-30T07:25:03,42.805,6.029,-0.038,-0.041,-0.011,107.0,106.0,104.0,13.3,1505.2,325.6,-0.8,1.8,2470.726,13.29,0.055,222.8
2022-03-30T07:28:03,42.805,6.029,-0.039,-0.035,0.0,107.0,105.0,105.0,13.4,1505.2,324.2,-0.8,1.8,2470.655,13.29,0.052,228.1
2022-03-30T07:31:03,42.805,6.029,-0.022,-0.027,0.003,107.0,105.0,103.0,13.3,1505.2,325.9,-0.8,1.8,2470.652,13.29,0.034,219.2
2022-03-30T07:34:03,42.805,6.029,-0.03,-0.027,-0.012,107.0,107.0,104.0,13.3,1505.2,329.2,-0.7,1.8,2470.688,13.29,0.04,228.0
2022-03-30T07:37:03,42.805,6.029,-0.036,-0.022,-0.028,108.0,106.0,103.0,13.4,1505.2,326.5,-0.8,1.8,2470.658,13.29,0.042,238.6
2022-03-30T07:40:03,42.805,6.029,-0.015,-0.041,-0.036,107.0,107.0,104.0,13.3,1505.2,322.9,-0.8,1.8,2470.699,13.29,0.043,200.1
2022-03-30T07:43:03,42.805,6.029,-0.025,-0.034,0.004,107.0,105.0,104.0,13.4,1505.2,326.4,-0.8,1.8,2470.673,13.29,0.042,216.3
2022-03-30T07:46:03,42.805,6.029,-0.027,-0.033,-0.017,108.0,105.0,104.0,13.4,1505.2,328.3,-0.8,1.8,2470.682,13.29,0.042,219.3
2022-03-30T07:49:03,42.805,6.029,-0.04,-0.043,-0.018,107.0,106.0,103.0,13.4,1505.2,322.4,-0.8,1.8,2470.683,13.29,0.058,222.9
2022-03-30T07:52:03,42.805,6.029,-0.025,-0.006,0.003,107.0,106.0,104.0,13.3,1505.2,327.4,-0.7,1.8,2470.683,13.29,0.025,256.5
2022-03-30T07:55:03,42.805,6.029,-0.031,-0.039,-0.005,108.0,106.0,104.0,13.4,1505.2,329.5,-0.7,1.8,2470.64,13.29,0.049,218.5
2022-03-30T07:58:03,42.805,6.029,-0.025,-0.029,-0.016,106.0,106.0,104.0,13.3,1505.2,327.1,-0.8,1.8,2470.691,13.29,0.038,220.8
2022-03-30T08:04:02,42.805,6.029,-0.016,-0.033,-0.037,107.0,106.0,104.0,13.4,1505.2,325.8,-0.8,1.8,2470.687,13.28,0.036,205.9
2022-03-30T08:07:03,42.805,6.029,-0.028,-0.028,-0.031,108.0,106.0,103.0,13.4,1505.2,322.9,-0.7,1.8,2470.674,13.28,0.039,225.0
2022-03-30T08:10:03,42.805,6.029,-0.037,-0.034,-0.04,108.0,106.0,104.0,13.4,1505.2,329.2,-0.8,1.9,2470.69,13.29,0.05,227.4
2022-03-30T08:13:03,42.805,6.029,-0.037,-0.023,-0.034,107.0,106.0,103.0,13.4,1505.2,330.4,-0.7,1.8,2470.674,13.29,0.043,238.1
2022-03-30T08:16:03,42.805,6.029,-0.036,-0.024,-0.011,106.0,106.0,103.0,13.4,1505.2,325.6,-0.7,1.8,2470.693,13.29,0.043,236.3
2022-03-30T08:19:03,42.805,6.029,-0.045,-0.022,-0.014,108.0,104.0,105.0,13.4,1505.2,325.6,-0.8,1.8,2470.66,13.29,0.05,243.9
2022-03-30T08:22:03,42.805,6.029,-0.02,-0.039,-0.035,106.0,106.0,103.0,13.4,1505.2,326.3,-0.8,1.8,2470.668,13.29,0.043,207.1
2022-03-30T08:25:03,42.805,6.029,-0.033,-0.048,-0.029,108.0,106.0,104.0,13.4,1505.2,324.9,-0.8,1.8,2470.658,13.29,0.058,214.5
2022-03-30T08:28:03,42.805,6.029,-0.024,-0.021,0.014,107.0,106.0,104.0,13.4,1505.2,326.7,-0.7,1.8,2470.659,13.29,0.031,228.8
2022-03-30T08:31:03,42.805,6.029,-0.025,-0.034,-0.015,106.0,106.0,104.0,13.3,1505.2,328.7,-0.8,1.8,2470.624,13.29,0.042,216.3
2022-03-30T08:34:03,42.805,6.029,-0.027,-0.022,-0.019,106.0,106.0,105.0,13.4,1505.2,324.9,-0.8,1.8,2470.651,13.29,0.034,230.8
2022-03-30T08:37:03,42.805,6.029,-0.029,-0.011,0.019,107.0,105.0,105.0,13.4,1505.2,325.8,-0.7,1.8,2470.644,13.29,0.031,249.2
2022-03-30T08:40:03,42.805,6.029,-0.038,-0.02,-0.038,107.0,106.0,103.0,13.4,1505.2,330.4,-0.7,1.8,2470.645,13.29,0.042,242.2
2022-03-30T08:43:03,42.805,6.029,0.0,-0.05,-0.02,107.0,106.0,104.0,13.4,1505.2,323.0,-0.7,1.8,2470.614,13.29,0.05,180.0
2022-03-30T08:46:03,42.805,6.029,-0.035,-0.024,-0.011,106.0,107.0,103.0,13.4,1505.2,328.7,-0.7,1.8,2470.646,13.29,0.042,235.6
2022-03-30T08:49:03,42.805,6.029,-0.036,-0.051,-0.046,108.0,105.0,105.0,13.4,1505.2,322.7,-0.8,1.8,2470.615,13.29,0.062,215.2
2022-03-30T08:52:03,42.805,6.029,-0.04,-0.044,-0.033,107.0,106.0,104.0,13.4,1505.2,327.3,-0.7,1.8,2470.647,13.29,0.059,222.3
2022-03-30T08:55:03,42.805,6.029,-0.041,-0.027,-0.008,106.0,106.0,104.0,13.4,1505.2,323.4,-0.8,1.8,2470.63,13.29,0.049,236.6
2022-03-30T08:58:03,42.805,6.029,-0.019,-0.043,-0.015,107.0,105.0,103.0,13.3,1505.2,327.5,-0.7,1.8,2470.646,13.29,0.047,203.8
2022-03-30T09:04:03,42.805,6.029,-0.039,-0.028,-0.031,106.0,105.0,104.0,13.4,1505.2,324.0,-0.7,1.8,2470.641,13.28,0.048,234.3
2022-03-30T09:07:03,42.805,6.029,-0.024,-0.026,-0.025,107.0,106.0,104.0,13.3,1505.2,328.2,-0.7,1.8,2470.656,13.28,0.035,222.7
2022-03-30T09:10:03,42.805,6.029,-0.02,-0.049,-0.004,107.0,107.0,104.0,13.4,1505.2,327.6,-0.7,1.8,2470.637,13.28,0.052,202.2
2022-03-30T09:13:03,42.805,6.029,-0.028,-0.024,-0.02,105.0,106.0,105.0,13.4,1505.2,328.7,-0.7,1.8,2470.638,13.29,0.036,229.4
2022-03-30T09:16:03,42.805,6.029,-0.04,-0.017,-0.017,106.0,107.0,103.0,13.4,1505.2,329.1,-0.7,1.8,2470.624,13.29,0.043,247.0
2022-03-30T09:19:03,42.805,6.029,-0.033,-0.04,-0.023,107.0,106.0,103.0,13.3,1505.2,329.7,-0.8,1.8,2470.621,13.29,0.051,219.5
2022-03-30T09:22:03,42.805,6.029,-0.043,-0.033,-0.007,106.0,107.0,104.0,13.4,1505.2,327.1,-0.8,1.8,2470.655,13.29,0.054,232.5
2022-03-30T09:25:03,42.805,6.029,-0.019,-0.053,-0.041,107.0,105.0,104.0,13.4,1505.2,327.4,-0.7,1.8,2470.615,13.29,0.056,199.7
2022-03-30T09:28:03,42.805,6.029,-0.005,-0.016,-0.042,108.0,106.0,104.0,13.3,1505.2,322.4,-0.7,1.8,2470.615,13.29,0.016,197.4
2022-03-30T09:31:03,42.805,6.029,-0.006,-0.039,0.0,108.0,107.0,105.0,13.4,1505.2,328.4,-0.8,1.8,2470.621,13.29,0.039,188.7
2022-03-30T09:34:03,42.805,6.029,-0.005,-0.022,-0.018,107.0,106.0,105.0,13.4,1505.2,330.8,-0.7,1.8,2470.618,13.29,0.022,192.8
2022-03-30T09:37:03,42.805,6.029,-0.032,-0.038,-0.035,108.0,107.0,104.0,13.4,1505.2,329.0,-0.8,1.8,2470.613,13.29,0.049,220.1
2022-03-30T09:40:03,42.805,6.029,-0.029,-0.02,-0.019,107.0,105.0,103.0,13.4,1505.2,324.8,-0.7,1.8,2470.56,13.29,0.035,235.4
2022-03-30T09:43:03,42.805,6.029,-0.034,-0.021,-0.011,107.0,106.0,104.0,13.4,1505.2,327.5,-0.7,1.8,2470.605,13.29,0.039,238.3
2022-03-30T09:46:03,42.805,6.029,-0.026,-0.043,0.025,107.0,105.0,103.0,13.3,1505.2,328.5,-0.7,1.8,2470.563,13.29,0.05,211.2
2022-03-30T09:49:03,42.805,6.029,-0.025,-0.019,-0.008,107.0,105.0,103.0,13.3,1505.2,329.7,-0.7,1.8,2470.571,13.29,0.031,232.8